Weather History for Viciebsk, Belarus

Change the Weather History Date:

Saturday, March 2, 2013

  Actual Average Record
Temperature  
Mean Temperature 26 °F -  
Max Temperature 25 °F 36 °F - ()
Min Temperature 18 °F 23 °F - ()
Degree Days  
Heating Degree Days 38    
Moisture  
Dew Point 17 °F    
Average Humidity 77    
Maximum Humidity 93    
Minimum Humidity 37    
Precipitation  
Precipitation 0.00 in 0.05 in - ()
Sea Level Pressure  
Sea Level Pressure 29.74 in    
Wind  
Wind Speed 7 mph ()    
Max Wind Speed 11 mph    
Max Gust Speed 18 mph    
Visibility 4.3 miles    
Events Snow    
T = Trace of Precipitation, MM = Missing Value Source: Averaged Metar Reports

Daily Weather History Graph

Daily Weather History Graph

Search for Another Location

Airport:

Trip Planner

Search our weather history database for the weather conditions in past years. The results will help you decide how hot, cold, wet, or windy it might be!

Date:

Astronomy

Mar. 02, 2013 Rise Set
Actual Time 7:46 AM FET 6:36 PM FET
Civil Twilight 7:10 AM FET 7:13 PM FET
Nautical Twilight 6:28 AM FET 7:55 PM FET
Astronomical Twilight 5:45 AM FET 8:38 PM FET
Moon No Moon Rise 9:04 AM FET (3/2)
Length of Visible Light 12h 02m
Length of Day
10h 49m
Waning Gibbous, 77% of the Moon is Illuminated
Mar 2
Waning Gibbous
Mar 5
Last Quarter
Mar 11
New
Mar 19
First Quarter
Mar 27
Full

Hourly Weather History & Observations

Time (FET) Temp. Windchill Dew Point Humidity Pressure Visibility Wind Dir Wind Speed Gust Speed Precip Events Conditions
12:00 AM 32 °F - 28 °F 81% 29.57 in 6 mi NW 6.7 mph - - Snow Light Snow
3:00 AM 29 °F - 22 °F 65% 29.65 in 4 mi NW 6.7 mph - - Snow Light Snow
6:00 AM 27 °F - 20 °F 64% 29.70 in 6 mi NW 6.7 mph - - Snow Low Drifting Snow
8:00 AM 23.0 °F 11.9 °F 19.4 °F 86% 29.65 in 1.8 mi NNW 11.2 mph 17.9 mph N/A Snow Light Snow Showers
8:05 AM 23.0 °F 11.9 °F 19.4 °F 86% 29.65 in 0.6 mi NNW 11.2 mph 17.9 mph N/A Snow Heavy Snow Showers
8:18 AM 23.0 °F 11.9 °F 19.4 °F 86% 29.65 in - NNW 11.2 mph 17.9 mph N/A Snow Light Snow Showers
9:00 AM 24 °F - 18 °F 70% 29.76 in 5 mi NNW 4.5 mph - - Snow Light Snow
9:00 AM 23.0 °F 11.9 °F 19.4 °F 86% 29.68 in - NNW 11.2 mph 17.9 mph N/A Snow Light Snow Showers
10:00 AM 23.0 °F 11.9 °F 19.4 °F 86% 29.71 in - NNW 11.2 mph 17.9 mph N/A Snow Light Snow Showers
10:55 AM 23.0 °F 11.9 °F 19.4 °F 86% 29.71 in 1.7 mi NNW 11.2 mph 17.9 mph N/A Snow Light Snow Showers
11:00 AM 23.0 °F 11.9 °F 19.4 °F 86% 29.74 in - NNW 11.2 mph 17.9 mph N/A Snow Light Snow Showers
12:00 PM 24 °F - 13 °F 52% 29.83 in 6 mi North 6.7 mph - - Snow Light Snow
12:00 PM 21.2 °F 11.0 °F 19.4 °F 93% 29.74 in - North 8.9 mph 15.7 mph N/A Snow Light Snow Showers
12:02 PM 21.2 °F 11.0 °F 19.4 °F 93% 29.74 in - North 8.9 mph 15.7 mph N/A Snow Light Snow Showers
1:00 PM 21.2 °F 11.0 °F 17.6 °F 86% 29.77 in - North 8.9 mph 15.7 mph N/A Snow Light Snow Showers
1:15 PM 21.2 °F 11.0 °F 17.6 °F 86% 29.77 in 3.7 mi North 8.9 mph 15.7 mph N/A Snow Light Snow Showers
1:30 PM 21.2 °F 11.0 °F 17.6 °F 86% 29.77 in - North 8.9 mph 15.7 mph N/A Snow Light Snow Showers
2:00 PM 21.2 °F 11.0 °F 15.8 °F 80% 29.77 in 3.7 mi NNW 8.9 mph 15.7 mph N/A Snow Light Snow Showers
3:00 PM 24 °F - 8 °F 37% 29.86 in 6 mi WNW 6.7 mph - -   Partly Cloudy
3:00 PM 21.2 °F 11.0 °F 15.8 °F 80% 29.77 in 3.7 mi NNW 8.9 mph 15.7 mph N/A Snow Light Snow Showers
3:15 PM 21.2 °F 11.0 °F 15.8 °F 80% 29.77 in - NNW 8.9 mph 15.7 mph N/A Snow Light Snow Showers
4:00 PM 21.2 °F 11.0 °F 15.8 °F 80% 29.77 in - NNW 8.9 mph 15.7 mph N/A Snow Light Snow Showers
6:00 PM 21 °F - 10 °F 48% 29.88 in 6 mi NNW 4.5 mph - - Snow Light Snow
9:00 PM 18 °F - 9 °F 54% 29.85 in 6 mi Calm Calm - -   Partly Cloudy